Location: Northern Prairie Star Party
(53.2167°N, 112.5333°W)
Time: 04:06:43
(UTC-06:00)

MaSat-1 - Visible Passes

Search period start: 19 April 2014 00:00
Search period end: 29 April 2014 00:00
Orbit: 291 x 869 km, 69.5° (Epoch: 19 April)

Date Brightness Start Highest point End Pass type
(mag) Time Alt. Az. Time Alt. Az. Time Alt. Az.
19 Apr ? 23:34:34 31° N 23:34:34 31° N 23:36:16 10° NNE visible
20 Apr ? 22:00:59 16° E 22:00:59 16° E 22:01:56 10° ENE visible
20 Apr ? 23:37:06 17° W 23:38:22 25° NW 23:40:31 10° NNE visible
21 Apr ? 22:01:49 10° S 22:04:12 29° ESE 22:06:28 10° NE visible
21 Apr ? 23:40:52 10° W 23:42:40 17° NW 23:44:26 10° N visible
22 Apr ? 22:05:34 10° SSW 22:08:09 51° ESE 22:10:35 10° NE visible
22 Apr ? 23:45:39 10° WNW 23:46:47 12° NW 23:47:55 10° NNW visible
23 Apr ? 04:45:20 10° NNE 04:46:35 12° NE 04:47:54 10° ENE visible
23 Apr ? 22:09:18 10° SW 22:11:54 87° WNW 22:14:23 10° NE visible
24 Apr ? 04:48:31 10° N 04:50:27 17° NE 04:52:32 10° E visible
24 Apr ? 22:12:57 10° SW 22:15:28 49° NW 22:17:53 10° NNE visible
25 Apr ? 04:51:42 10° N 04:54:02 23° NE 04:56:39 10° ESE visible
25 Apr ? 22:16:31 10° WSW 22:18:49 30° NW 22:21:05 10° NNE visible
26 Apr ? 04:54:44 10° NNW 04:57:22 33° NE 05:00:23 10° ESE visible
26 Apr ? 22:20:01 10° W 22:22:00 20° NW 22:23:58 10° N visible
27 Apr ? 04:57:38 10° NNW 05:00:28 49° NE 05:03:45 10° SE visible
27 Apr ? 22:23:28 10° W 22:25:00 15° NW 22:26:32 10° N visible
28 Apr ? 03:23:40 10° NNE 03:24:36 11° NE 03:25:33 10° NE visible
28 Apr ? 05:00:22 10° NNW 05:03:18 76° NE 05:06:46 10° SE visible
28 Apr ? 22:27:04 10° NW 22:27:49 11° NW 22:28:34 10° NNW visible
